Overview Statistics Trail Chart Weather Telemetry Raw packets
 

This is the latest recevied weather packets stored in our database for station/object W7TRD. If no packets are shown the sender has not sent any weather packets the latest 10 day(s).

<< 108 109 110 111 112 113 114 >>
Time Temp. Humidity Pressure Rain* Wind** Luminosity Snow
1787801833 23.33° C 60% 1016 hPa 0 mm - 0 W/m² -
1787801529 23.33° C 60% 1015.8 hPa 0 mm - 0 W/m² -
1787801227 23.33° C 60% 1015.9 hPa 0 mm - 0 W/m² -
1787800926 23.33° C 59% 1015.9 hPa 0 mm - 0 W/m² -
1787800621 23.89° C 58% 1015.8 hPa 0 mm - 0 W/m² -
1787800322 23.89° C 58% 1015.8 hPa 0 mm - 1 W/m² -
1787800017 24.44° C 58% 1015.6 hPa 0 mm - 1 W/m² -
1787799716 24.44° C 57% 1015.7 hPa 0 mm - 2 W/m² -
1787799413 24.44° C 56% 1015.6 hPa 0 mm - 4 W/m² -
1787799113 24.44° C 56% 1015.8 hPa 0 mm - 6 W/m² -
1787798812 25° C 55% 1015.5 hPa 0 mm - 8 W/m² -
1787798507 25° C 55% 1015.7 hPa 0 mm - 10 W/m² -
1787798202 25° C 55% 1015.8 hPa 0 mm - 14 W/m² -
1787797901 25.56° C 55% 1015.7 hPa 0 mm - 17 W/m² -
1787797596 25.56° C 52% 1015.7 hPa 0 mm - 19 W/m² -
1787797291 26.11° C 52% 1015.8 hPa 0 mm - 23 W/m² -
1787796986 26.11° C 51% 1015.7 hPa 0 mm - 28 W/m² -
1787796686 26.11° C 53% 1015.7 hPa 0 mm - 36 W/m² -
1787796382 26.11° C 52% 1015.8 hPa 0 mm - 40 W/m² -
1787796077 25.56° C 52% 1015.7 hPa 0 mm - 42 W/m² -
1787795775 26.11° C 51% 1015.8 hPa 0 mm - 43 W/m² -
1787795475 26.11° C 51% 1015.9 hPa 0 mm - 35 W/m² -
1787795174 26.11° C 51% 1016 hPa 0 mm - 35 W/m² -
1787794873 26.11° C 51% 1016 hPa 0 mm - 37 W/m² -
1787794569 26.11° C 50% 1015.9 hPa 0 mm - 39 W/m² -

* Rain latest hour (hover to see other rain measurements)
** Current wind speed in m/s (hover to see current wind gust speed)